Погода в Вонджу

Южная Корея     37°20′08″N   127°56′57″E
темп.,
°C
ветер,
м/с
пор.,
м/с
влажн.,
%
обл.,
%
осадки,
мм/ч
давл.,
гПа
погр.,
м
15 апреля, чт
чт1500:00+2юз11735 0.0 102114
03:00+2в008177 0.0 102110
06:00+1св118544 0.0 102110
09:00+7зюз1157100 0.0 1021478
12:00+12з2240100 0.0 10201055
15:00+13зюз2235100 0.0 10171188
18:00+12юз23460 0.0 1016158
21:00+7вюв2255100 0.0 101716
16 апреля, пт
пт1600:00+6юв2266100 0.0 101731
03:00+5ю116697 0.0 101617
06:00+6ю2874100 0.5 1015555
09:00+6ю31176100 0.7 10151015
12:00+8ююз41286100 0.6 10151212
15:00+11ююз5117559 0.9 10131481
18:00+8зюз41142100 0.1 1015793
21:00+5юз1145100 0.1 101813
17 апреля, сб
сб1700:00+4юв114548 0.0 101711
03:00+3юв115110 0.0 101612
06:00+2ю115798 0.0 101410
09:00+4зюз368099 0.6 1017694
12:00+10з512425 0.1 10142507
15:00+11з8133154 0.1 10122788
18:00+7з710420 0.0 10131657
21:00+5з5118299 0.0 10151144
18 апреля, вс
вс1800:00+5з5117885 0.1 10151231
03:00+4зсз3108277 0.1 1015924
06:00+2з249127 0.0 1016186
09:00+7зсз48606 0.0 10171071
12:00+12зсз69425 0.0 10151551
15:00+14зсз69354 0.0 10131852
18:00+12з58441 0.0 1014918
21:00+6юз11620 0.0 101723
19 апреля, пн
пн1900:00+4ююз11690 0.0 101814
03:00+3ю11720 0.0 101911
06:00+2ю01720 0.0 101910
09:00+10зюз12450 0.0 1019421
12:00+15з34320 0.0 10181006
15:00+17зсз35270 0.0 10161274
18:00+15з36370 0.0 1016257
21:00+9зюз11490 0.0 101910